User: anonymous   Login
Location: Arbon
(43.0005°N, 0.7472°E)
Time: 15:41:50
(UTC+00:00)
Language:

Cosmos 1328 - Orbit

View from above orbital plane
View from above orbital plane
View from above satellite
View from above satellite

Ground track
Ground track

The orbit data is extracted from the following two-line orbital elements,

1 12987U 81117A   20295.05000428 +.00000009 +00000-0 -13767-5 0  9991
2 12987 082.5164 131.1211 0011053 112.7572 247.4825 15.08170482116343
Epoch (UTC): 21 October 2020 01:12:00
Eccentricity: 0.0011053
inclination: 82.5164°
perigee height: 534 km
apogee height: 549 km
right ascension of ascending node: 131.1211°
argument of perigee: 112.7572°
revolutions per day: 15.08170482
mean anomaly at epoch: 247.4825°
orbit number at epoch: 11634

The dashed part of the orbit path shows where the satellite is in the earth's shadow,  

DLR